This is the latest recevied weather packets stored in our database for station/object KE2HEH. If no packets are shown the sender has not sent any weather packets the latest 10 day(s).
| Time | Temp. | Humidity | Pressure | Rain* | Wind** | Luminosity | Snow |
|---|---|---|---|---|---|---|---|
| 1777727540 | 11.11° C | 91% | 1013.2 hPa | 0 mm | - | 173 W/m² | - |
| 1777727236 | 11.67° C | 91% | 1013 hPa | 0 mm | - | 136 W/m² | - |
| 1777726934 | 11.11° C | 92% | 1013.2 hPa | 0 mm | - | 144 W/m² | - |
| 1777726630 | 11.11° C | 92% | 1013.2 hPa | 0 mm | - | 140 W/m² | - |
| 1777726328 | 11.11° C | 92% | 1013 hPa | 0 mm | - | 144 W/m² | - |
| 1777726024 | 11.11° C | 92% | 1013 hPa | 0 mm | - | 144 W/m² | - |
| 1777725721 | 11.11° C | 93% | 1012.9 hPa | 0 mm | - | 141 W/m² | - |
| 1777725420 | 11.11° C | 93% | 1012.8 hPa | 0 mm | - | 120 W/m² | - |
| 1777725116 | 11.11° C | 93% | 1012.9 hPa | 0 mm | - | 108 W/m² | - |
| 1777724813 | 11.11° C | 93% | 1012.9 hPa | 0 mm | - | 114 W/m² | - |
| 1777724509 | 10.56° C | 93% | 1013 hPa | 0 mm | - | 111 W/m² | - |
| 1777724208 | 10.56° C | 93% | 1013.1 hPa | 0 mm | - | 108 W/m² | - |
| 1777723905 | 10.56° C | 93% | 1013 hPa | 0 mm | - | 76 W/m² | - |
| 1777723601 | 11.11° C | 93% | 1013 hPa | 0 mm | - | 73 W/m² | - |
| 1777722996 | 10.56° C | 93% | 1013 hPa | 0 mm | - | 123 W/m² | - |
| 1777722692 | 10.56° C | 93% | 1013 hPa | 0 mm | - | 109 W/m² | - |
| 1777722388 | 10.56° C | 93% | 1013.2 hPa | 0 mm | - | 78 W/m² | - |
| 1777722086 | 10.56° C | 93% | 1013.1 hPa | 0 mm | - | 68 W/m² | - |
| 1777721783 | 10.56° C | 93% | 1013 hPa | 0 mm | - | 68 W/m² | - |
| 1777721481 | 10.56° C | 93% | 1013.1 hPa | 0 mm | - | 40 W/m² | - |
| 1777721179 | 10.56° C | 93% | 1013.1 hPa | 0 mm | - | 42 W/m² | - |
| 1777720876 | 10.56° C | 93% | 1012.7 hPa | 0 mm | - | 61 W/m² | - |
| 1777720573 | 10.56° C | 93% | 1012.6 hPa | 0 mm | - | 50 W/m² | - |
| 1777720271 | 10.56° C | 93% | 1012.7 hPa | 0 mm | - | 29 W/m² | - |
| 1777719968 | 10.56° C | 92% | 1012.6 hPa | 0 mm | - | 21 W/m² | - |
* Rain latest hour (hover to see other rain measurements)
** Current wind speed in m/s (hover to see current wind gust speed)